Find Starlink 36134

NORAD ID: 66863 Int'l Des: 2025-281 Owner: SPXS Country: US Constellation: starlink operational
LEOCIRCULAR

Current View

Loading 3D Globe...

About Starlink 36134

Description loading...

Upcoming Passes

Passes for default location (London). Set your location on the main map for personalized predictions.

Altitude History

Loading altitude history...

Two-Line Element Set

1 66863U 25281R 26146.38939489 .00030900 00000-0 11273-2 0 9997
2 66863 43.0017 264.2320 0001532 244.8536 115.2157 15.27591267 28072
Epoch: May 26, 2026 • Age: 11 hours

Current Status

Altitude 495.2 km
Velocity 7.62 km/s
Sub-Earth Point -42.73°S, 2.32°W
Launch Date Dec 2, 2025
Age 0.4 years
Type internet

Technical Details

Classification Payload
Mass 575.00 kg
Dry Mass 530.00 kg
Total Mass 575.00 kg
Length 0.30 m
Diameter 4.10 m
Span 29.00 m
Shape Box + pan
Manufacturer SPXS
Bus Type Starlink V2MO
Phase Status In Orbit
Owner/State SPXS/US

Most Searched